Regional Weather Roundup
Issued by NWS

Home | Current Version | Previous Version | Graphics & Text | Print | Product List | Glossary Off
Versions: 1 2 3 4 5 6 7 8 9 10 11 12 13 14 15 16 17 18 19 20 21 22 23 24 25 26 27 28 29 30 31 32 33 34 35 36 37 38 39 40 41 42 43 44 45 46 47 48 49 50

001
ASUS43 KTOP 011008
RWRKS

WEATHER ROUNDUP FOR KANSAS
NATIONAL WEATHER SERVICE GOODLAND KS
400 AM CST WED MAR 01 2017

NOTE:  "FAIR" INDICATES FEW OR NO CLOUDS BELOW 12,000 FEET WITH NO
SIGNIFICANT WEATHER AND/OR OBSTRUCTIONS TO VISIBILITY.

KSZ001>006-013>018-027>032-041>047-011100-
NORTHWEST KANSAS

CITY           SKY/WX    TMP DP  RH WIND       PRES   REMARKS
GOODLAND       CLEAR     25  13  60 W22       30.02R WCI  10
HAYS           CLEAR     31  17  56 NW15      30.01R WCI  20
HILL CITY      CLEAR     31  15  52 W15       30.01R WCI  20
RUSSELL        CLEAR     31  14  49 NW12      29.98R WCI  22
$$

KSZ061>065-074>080-084>089-011100-
SOUTHWEST KANSAS

CITY           SKY/WX    TMP DP  RH WIND       PRES   REMARKS
DODGE CITY     CLEAR     32  18  56 NW16      30.04R WCI  21
ELKHART          N/A     29  13  51 W13         N/A  WCI  19
GARDEN CITY    CLEAR     28  15  58 NW10      30.06R WCI  19
GREAT BEND     CLEAR     31  16  54 W13       30.01R WCI  21
LIBERAL        CLEAR     28  16  59 W10       30.09R WCI  19
PRATT          MOCLDY    32  12  44 NW13      30.02R WCI  22
$$

KSZ066>073-081>083-090>101-011100-
SOUTHEAST KANSAS

CITY           SKY/WX    TMP DP  RH WIND       PRES   REMARKS
CHANUTE        CLEAR     40  33  76 NW13      29.89R WCI  32
COFFEYVILLE    CLEAR     41  34  76 NW9       29.94R
HUTCHINSON     CLEAR     36  15  42 NW17      29.98R WCI  26
MEDICINE LODGE   N/A     41  12  30 N20G26    30.02R
NEWTON         CLEAR     37  20  50 NW17      29.95R WCI  27
PARSONS        CLEAR     40  34  79 NW8       29.92R
WICHITA INTL   MOCLDY    38  19  46 NW15      29.96R WCI  29
WICHITA JABRA  CLEAR     39  22  50 NW16      29.95R WCI  30
WICHITA MCCONL CLEAR     41  19  41 NW14      29.95R
WINFIELD       CLEAR     37  29  72 W7        29.98R
$$

KSZ007>012-019>026-033>040-048>060-102>105-011100-
NORTHEAST KANSAS

CITY           SKY/WX    TMP DP  RH WIND       PRES   REMARKS
CONCORDIA      CLEAR     31  25  78 W14       29.93R WCI  21
EMPORIA        CLEAR     39  28  64 NW15G25   29.90R WCI  31
LAWRENCE       PTCLDY    37  33  85 W12       29.85R WCI  29
MANHATTAN      CLEAR     36  27  69 W7        29.92R
MARYSVILLE     PTCLDY    32  30  93 NW8       29.89R
OLATHE IND     CLEAR     38  34  85 W13       29.82S WCI  30
OLATHE EXE     CLEAR     38  35  89 NW10      29.81R WCI  31
SALINA         CLEAR     34  20  56 W10       29.97R WCI  26
TOPEKA BILLARD PTCLDY    39  34  82 W13       29.86R WCI  31
TOPEKA FORBES  CLEAR     40  31  70 NW15      29.86R WCI  32
$$




USA.gov is the U.S. government's official web portal to all federal, state and local government web resources and services.